Weather History for Trabzon, Turkey

Change the Weather History Date:

Tuesday, August 20, 2013

  Actual Average Record
Temperature  
Mean Temperature 78 °F -  
Max Temperature 83 °F 74 °F - ()
Min Temperature 74 °F 65 °F - ()
Cooling Degree Days 14    
Growing Degree Days 28 (Base 50)    
Moisture  
Dew Point 63 °F    
Average Humidity 60    
Maximum Humidity 83    
Minimum Humidity 32    
Precipitation  
Precipitation 0.00 in - - ()
Sea Level Pressure  
Sea Level Pressure 29.91 in    
Wind  
Wind Speed 10 mph ()    
Max Wind Speed 17 mph    
Max Gust Speed 23 mph    
Visibility 6.6 miles    
Events Thunderstorm    
T = Trace of Precipitation, MM = Missing Value Source: Averaged Metar Reports

Daily Weather History Graph

Daily Weather History Graph

Search for Another Location

Airport:

Trip Planner

Search our weather history database for the weather conditions in past years. The results will help you decide how hot, cold, wet, or windy it might be!

Date:

Astronomy

Aug. 20, 2013 Rise Set
Actual Time 5:35 AM EEST 7:12 PM EEST
Civil Twilight 5:06 AM EEST 7:41 PM EEST
Nautical Twilight 4:31 AM EEST 8:16 PM EEST
Astronomical Twilight 3:53 AM EEST 8:53 PM EEST
Moon 6:29 PM EEST 4:40 AM EEST
Length of Visible Light 14h 34m
Length of Day
13h 36m
Waxing Gibbous, 99% of the Moon is Illuminated
Aug 20
Waxing Gibbous
Aug 21
Full
Aug 28
Last Quarter
Sep 5
New
Sep 12
First Quarter

Hourly Weather History & Observations

Time (EEST) Temp. Heat Index Dew Point Humidity Pressure Visibility Wind Dir Wind Speed Gust Speed Precip Events Conditions
12:20 AM 75.2 °F - 55.4 °F 50% 29.92 in 6.2 mi South 10.4 mph - N/A   Mostly Cloudy
12:28 AM 77.0 °F - 55.4 °F 47% 29.89 in 6.2 mi SSW 11.5 mph - N/A Thunderstorm Thunderstorm
12:50 AM 75.2 °F - 55.4 °F 50% 29.89 in 6.2 mi SSW 13.8 mph - N/A Thunderstorm Thunderstorm
1:20 AM 75.2 °F - 55.4 °F 50% 29.89 in 6.2 mi SW 16.1 mph - N/A   Mostly Cloudy
1:50 AM 75.2 °F - 53.6 °F 47% 29.89 in 6.2 mi SW 16.1 mph - N/A   Scattered Clouds
2:20 AM 75.2 °F - 51.8 °F 44% 29.89 in 6.2 mi SSW 13.8 mph - N/A   Scattered Clouds
2:50 AM 75.2 °F - 51.8 °F 44% 29.89 in 6.2 mi SSW 13.8 mph - N/A   Scattered Clouds
3:00 AM 76 °F - 52 °F 32% 29.90 in 12 mi SSW 13.8 mph - -   Partly Cloudy
3:20 AM 75.2 °F - 51.8 °F 44% 29.89 in 6.2 mi SSW 15.0 mph - N/A   Scattered Clouds
3:50 AM 77.0 °F - 50.0 °F 39% 29.89 in 6.2 mi SSW 15.0 mph - N/A   Scattered Clouds
4:20 AM 75.2 °F - 50.0 °F 41% 29.89 in 6.2 mi SSW 16.1 mph - N/A   Mostly Cloudy
4:50 AM 75.2 °F - 50.0 °F 41% 29.89 in 6.2 mi SSW 16.1 mph - N/A   Mostly Cloudy
5:20 AM 75.2 °F - 50.0 °F 41% 29.89 in 6.2 mi SSW 17.3 mph - N/A   Mostly Cloudy
5:50 AM 75.2 °F - 48.2 °F 38% 29.89 in 6.2 mi SW 15.0 mph - N/A   Mostly Cloudy
6:20 AM 75.2 °F - 48.2 °F 38% 29.89 in 6.2 mi SSW 13.8 mph - N/A   Mostly Cloudy
6:50 AM 77.0 °F - 50.0 °F 39% 29.92 in 6.2 mi South 10.4 mph - N/A   Mostly Cloudy
7:20 AM 78.8 °F - 50.0 °F 36% 29.92 in 6.2 mi South 9.2 mph 23.0 mph N/A   Mostly Cloudy
7:50 AM 80.6 °F 81.1 °F 59.0 °F 48% 29.92 in 6.2 mi Calm Calm - N/A   Scattered Clouds
8:20 AM 78.8 °F - 57.2 °F 47% 29.92 in 6.2 mi ENE 4.6 mph - N/A   Scattered Clouds
8:50 AM 80.6 °F 81.5 °F 60.8 °F 51% 29.92 in 6.2 mi NE 3.5 mph - N/A   Scattered Clouds
9:00 AM 80 °F - 59 °F 39% 29.92 in 12 mi NE 3.5 mph - -   Partly Cloudy
9:20 AM 80.6 °F 81.8 °F 62.6 °F 54% 29.92 in 6.2 mi NNE 4.6 mph - N/A   Scattered Clouds
9:50 AM 78.8 °F - 64.4 °F 61% 29.92 in 6.2 mi ENE 5.8 mph - N/A   Scattered Clouds
10:20 AM 78.8 °F - 62.6 °F 57% 29.92 in 6.2 mi ENE 6.9 mph - N/A   Scattered Clouds
10:50 AM 80.6 °F 82.3 °F 64.4 °F 58% 29.92 in 6.2 mi East 5.8 mph - N/A   Scattered Clouds
11:20 AM 80.6 °F 81.8 °F 62.6 °F 54% 29.92 in 6.2 mi East 5.8 mph - N/A   Scattered Clouds
11:50 AM 82.4 °F 84.6 °F 66.2 °F 58% 29.92 in 6.2 mi Variable 3.5 mph - N/A   Scattered Clouds
12:20 PM 82.4 °F 86.3 °F 69.8 °F 66% 29.92 in 6.2 mi NW 11.5 mph - N/A   Scattered Clouds
12:50 PM 82.4 °F 86.3 °F 69.8 °F 66% 29.92 in 6.2 mi NW 11.5 mph - N/A   Scattered Clouds
1:20 PM 82.4 °F 87.2 °F 71.6 °F 70% 29.92 in 6.2 mi NW 12.7 mph - N/A   Scattered Clouds
1:50 PM 82.4 °F 87.2 °F 71.6 °F 70% 29.89 in 6.2 mi NW 13.8 mph - N/A   Scattered Clouds
2:20 PM 80.6 °F 84.6 °F 71.6 °F 74% 29.89 in 6.2 mi WNW 12.7 mph - N/A   Scattered Clouds
2:50 PM 80.6 °F 84.6 °F 71.6 °F 74% 29.89 in 6.2 mi WNW 12.7 mph - N/A   Scattered Clouds
3:00 PM 81 °F - 71 °F 65% 29.90 in 12 mi WNW 12.7 mph - -   Partly Cloudy
3:20 PM 82.4 °F 87.2 °F 71.6 °F 70% 29.89 in 6.2 mi NW 11.5 mph - N/A   Scattered Clouds
3:50 PM 82.4 °F 87.2 °F 71.6 °F 70% 29.89 in 6.2 mi NW 10.4 mph - N/A   Scattered Clouds
4:20 PM 82.4 °F 87.2 °F 71.6 °F 70% 29.89 in 6.2 mi NW 10.4 mph - N/A   Scattered Clouds
4:50 PM 80.6 °F 85.4 °F 73.4 °F 79% 29.89 in 6.2 mi NW 11.5 mph - N/A   Scattered Clouds
5:20 PM 80.6 °F 85.4 °F 73.4 °F 79% 29.89 in 6.2 mi NW 9.2 mph - N/A   Scattered Clouds
5:50 PM 80.6 °F 85.4 °F 73.4 °F 79% 29.89 in 6.2 mi NW 6.9 mph - N/A   Scattered Clouds
6:20 PM 80.6 °F 85.4 °F 73.4 °F 79% 29.89 in 6.2 mi WNW 5.8 mph - N/A   Scattered Clouds
6:50 PM 78.8 °F - 73.4 °F 83% 29.92 in 6.2 mi NW 3.5 mph - N/A   Scattered Clouds
7:20 PM 78.8 °F - 73.4 °F 83% 29.92 in 6.2 mi Variable 1.2 mph - N/A   Scattered Clouds
7:50 PM 78.8 °F - 71.6 °F 78% 29.92 in 6.2 mi Calm Calm - N/A   Scattered Clouds
8:20 PM 77.0 °F - 69.8 °F 78% 29.92 in 6.2 mi Variable 2.3 mph 13.8 mph N/A   Scattered Clouds
8:50 PM 78.8 °F - 71.6 °F 78% 29.92 in 6.2 mi SSE 6.9 mph 19.6 mph N/A   Mostly Cloudy
9:00 PM 78 °F - 71 °F 72% 29.92 in 12 mi SSE 6.9 mph - -   Partly Cloudy
9:20 PM 78.8 °F - 69.8 °F 74% 29.92 in 6.2 mi SSE 5.8 mph - N/A   Mostly Cloudy
9:50 PM 77.0 °F - 69.8 °F 78% 29.92 in 6.2 mi Variable 8.1 mph - N/A   Scattered Clouds
10:20 PM 77.0 °F - 68.0 °F 74% 29.92 in 6.2 mi SSW 8.1 mph - N/A   Scattered Clouds
10:50 PM 75.2 °F - 68.0 °F 78% 29.92 in 6.2 mi South 8.1 mph - N/A   Scattered Clouds
11:20 PM 77.0 °F - 66.2 °F 69% 29.92 in 6.2 mi South 6.9 mph 23.0 mph N/A   Scattered Clouds
11:50 PM 77.0 °F - 68.0 °F 74% 29.92 in 6.2 mi SW 4.6 mph - N/A   Scattered Clouds